Location: Grieser Field
(39.7333°N, 81.7975°W)
Time: 11:51:18
(UTC-04:00)

MOS 1-B - Visible Passes

Search period start: 30 September 2014 00:00
Search period end: 10 October 2014 00:00
Orbit: 907 x 913 km, 99.2° (Epoch: 29 September)

Date Brightness Start Highest point End Pass type
(mag) Time Alt. Az. Time Alt. Az. Time Alt. Az.
30 Sep 6.0 03:52:42 10° NNE 03:55:16 28° NNE 03:55:16 28° NNE visible
30 Sep 6.1 05:36:25 10° NNW 05:38:31 15° NW 05:38:31 15° NW visible
01 Oct 6.0 03:58:17 10° NNE 04:00:49 27° NNE 04:00:49 27° NNE visible
01 Oct 6.2 05:42:21 10° NNW 05:44:04 13° NW 05:44:04 13° NW visible
02 Oct 6.0 04:03:53 10° NNE 04:06:23 27° N 04:06:23 27° N visible
02 Oct 6.3 05:48:23 10° NNW 05:49:38 12° NW 05:49:38 12° NW visible
03 Oct 6.0 04:09:30 10° N 04:11:56 27° N 04:11:56 27° N visible
03 Oct 6.4 05:54:37 10° NW 05:55:11 11° NW 05:55:11 11° NW visible
04 Oct 6.0 04:15:07 10° N 04:17:30 26° N 04:17:30 26° N visible
05 Oct 6.0 04:20:44 10° N 04:23:03 25° N 04:23:03 25° N visible
06 Oct 6.0 04:26:22 10° N 04:28:36 24° N 04:28:36 24° N visible
07 Oct 6.0 04:32:01 10° N 04:34:10 23° N 04:34:10 23° N visible
08 Oct 7.2 02:56:23 10° NE 02:56:28 10° NE 02:56:28 10° NE visible
08 Oct 6.1 04:37:41 10° N 04:39:43 22° N 04:39:43 22° N visible
09 Oct 7.2 03:01:49 10° NE 03:02:01 11° NE 03:02:01 11° NE visible
09 Oct 6.1 04:43:21 10° N 04:45:16 20° NNW 04:45:16 20° NNW visible
